Theta_e
320 321 321 320 320 320 320 320 320 321 322 323 324 324 325 325 323 321 312 321 324 337 326 321 320 320 319 315 318 319 310 308 313 317 317 325 320 321 320 316 319 322 321 327 331
319 320 320 320 319 319 319 320 320 321 321 322 323 324 325 324 320 318 331 341 339 338 317 317 314 316 313 314 316 314 310 312 318 321 318 324 321 317 316 317 315 320 325 328 330
318 319 319 318 318 318 319 319 320 320 321 322 322 323 324 323 321 320 338 340 334 332 319 319 317 315 311 314 315 315 310 316 318 320 325 322 321 321 316 315 316 318 322 326 327
317 317 317 317 317 318 318 319 319 319 320 322 322 323 323 323 313 319 338 339 337 322 319 318 314 312 310 310 315 312 316 318 319 323 321 322 323 320 318 319 320 322 324 325 325
317 316 316 317 317 317 317 318 318 318 319 322 322 322 322 322 323 322 340 335 319 319 319 315 313 313 310 312 314 312 314 317 320 322 321 323 321 321 320 323 321 323 323 324 324
316 316 316 316 316 316 316 317 317 317 320 323 321 322 321 316 331 323 320 319 320 318 318 317 315 317 314 313 313 315 315 315 319 321 322 323 321 322 323 325 320 321 321 323 323
315 315 315 315 316 316 316 316 316 317 322 322 322 323 319 319 330 330 324 320 319 319 317 318 319 316 316 313 317 315 312 314 319 321 322 324 318 319 325 325 320 320 321 322 324
315 314 314 314 315 316 316 316 316 318 324 323 323 324 316 329 331 325 325 321 320 322 320 321 320 317 316 317 316 312 313 309 317 321 323 321 311 319 325 323 321 320 320 321 323
314 313 313 314 315 315 315 314 316 321 325 324 323 323 314 329 322 327 323 319 319 320 320 320 318 314 314 309 311 313 306 309 313 321 320 319 313 320 323 323 322 323 321 320 323
313 312 312 313 314 314 313 314 320 322 323 326 325 318 322 316 321 325 324 320 316 316 314 314 312 309 310 308 301 305 307 309 310 317 319 317 314 320 323 322 322 323 324 322 323
313 312 312 312 313 312 313 319 317 318 322 316 317 314 315 320 325 322 322 316 316 313 307 312 306 304 307 309 311 310 309 309 312 319 315 312 315 319 321 321 321 322 325 326 326
312 312 312 312 312 312 314 314 311 312 305 313 313 314 317 319 314 317 322 312 311 307 310 308 304 309 311 311 309 308 307 308 314 319 317 316 314 319 321 322 321 322 324 326 328
311 311 312 312 311 315 317 315 317 317 308 311 316 313 314 316 312 315 319 314 310 307 308 305 308 312 309 308 307 307 306 307 309 315 318 316 312 314 318 320 322 323 323 327 327
311 311 311 310 312 318 316 318 318 319 305 310 311 315 316 315 310 318 321 316 310 307 309 308 311 309 308 306 308 304 309 308 309 308 306 315 302 312 313 315 317 320 322 322 327
310 311 311 309 313 314 317 318 318 318 298 312 314 321 316 311 313 312 321 316 308 308 309 306 307 307 306 306 309 305 310 308 308 306 307 308 304 306 312 310 313 317 319 322 324
310 310 309 316 316 321 321 319 316 306 298 308 313 310 309 310 311 315 314 318 315 309 311 309 313 311 309 310 309 309 307 307 308 305 299 304 303 303 307 311 314 317 319 321 322
309 309 308 313 315 321 320 315 303 299 309 305 308 311 309 307 308 312 310 309 305 302 303 308 309 312 312 307 310 307 304 297 296 296 296 305 302 305 311 314 315 317 318 321 323
307 306 314 318 323 320 318 308 296 304 306 310 309 309 307 310 309 309 308 307 311 308 305 303 301 309 312 308 305 305 305 297 292 294 297 305 299 304 314 316 318 318 319 320 321
305 320 320 324 325 321 311 300 300 306 308 306 307 304 305 308 308 309 308 306 310 312 305 303 303 312 312 312 309 305 303 307 302 302 297 301 306 312 314 315 316 316 317 320 325
307 315 319 324 324 318 306 299 304 309 308 307 301 304 302 305 306 308 307 310 308 311 314 310 302 310 312 311 311 308 309 302 304 296 294 298 302 304 312 314 316 316 318 322 325
312 314 321 324 321 311 301 303 306 310 309 304 303 303 304 304 306 306 308 311 313 311 313 312 311 306 310 308 305 305 304 306 307 305 298 296 299 316 316 317 318 318 320 321 323
313 307 320 322 309 311 306 309 306 308 310 307 307 304 303 304 304 304 305 309 314 314 308 312 314 303 304 311 313 310 307 307 300 300 304 303 302 316 318 316 322 320 322 325 329
308 310 320 318 302 307 312 312 311 309 308 307 305 307 307 304 302 304 305 310 311 312 311 314 311 301 302 307 311 308 308 309 311 315 304 299 303 315 318 318 320 320 320 323 325
308 305 312 313 312 307 306 308 308 313 311 310 308 309 306 305 308 305 305 309 312 311 317 317 310 306 300 303 308 306 307 308 308 303 302 301 304 309 312 315 317 320 320 320 322
310 307 311 304 308 309 310 307 305 305 311 312 309 309 307 303 304 304 306 308 310 314 312 315 307 306 307 308 307 306 306 307 307 308 303 304 305 309 312 315 316 323 323 321 321
306 307 309 306 307 304 304 303 302 304 306 305 306 308 308 306 306 303 306 308 308 313 312 319 308 306 302 306 307 305 307 307 307 307 307 308 308 315 317 317 316 318 321 319 322
313 312 307 303 303 302 302 303 302 306 307 308 307 306 305 307 309 308 308 308 308 307 309 309 308 306 301 306 305 301 305 306 308 310 309 305 310 314 313 316 317 318 320 320 323
Wind_Speed
22 21 20 20 20 19 19 18 17 16 14 13 13 12 10 9 12 8 11 7 11 8 2 12 14 15 14 16 18 19 12 15 11 15 10 14 15 15 15 14 8 19 21 21 20
21 20 20 21 21 20 20 19 19 17 14 13 12 11 9 7 12 17 8 8 9 6 9 13 11 12 12 14 12 14 14 14 5 15 12 18 17 16 12 13 14 21 19 20 19
22 20 20 21 22 21 21 20 19 17 15 13 12 10 8 8 9 5 8 9 9 7 13 19 15 11 14 15 18 16 15 13 8 8 17 8 15 12 15 13 16 20 21 20 19
23 23 23 22 23 21 21 21 20 20 16 14 11 8 6 7 3 6 9 8 7 8 14 15 11 14 13 16 18 16 18 15 13 7 2 2 12 6 10 14 22 20 21 20 18
23 24 24 23 22 21 21 21 20 19 17 13 8 5 6 9 12 12 13 9 10 10 14 14 12 12 14 16 17 18 15 12 7 7 12 16 10 5 8 21 23 21 20 19 18
23 23 24 24 23 22 21 21 20 18 16 10 5 3 8 14 15 15 13 13 13 13 15 14 10 9 11 17 17 12 13 13 9 7 12 12 10 6 11 17 23 21 20 18 18
23 24 24 24 25 23 22 21 19 18 14 6 4 6 12 15 3 17 14 13 13 14 15 8 10 8 11 14 17 10 10 9 12 15 5 6 13 12 10 16 23 21 18 18 17
24 24 25 24 26 25 23 21 20 16 11 5 4 8 9 3 4 5 11 13 14 14 14 8 3 12 15 14 14 12 14 16 15 16 13 13 6 21 8 15 19 20 18 17 17
24 26 27 27 28 27 25 24 18 10 9 4 6 8 16 4 10 10 10 13 14 10 9 8 10 13 15 13 12 15 16 19 20 19 15 15 10 18 19 14 16 17 17 17 16
25 26 27 28 28 28 28 19 1 5 6 9 11 11 14 12 12 13 11 13 12 12 12 12 12 13 12 12 14 14 18 17 16 13 17 15 15 18 11 15 17 19 19 19 18
26 27 28 29 29 27 17 6 5 6 12 14 7 13 8 4 4 9 11 12 15 11 14 15 13 14 16 18 20 21 14 17 17 17 13 30 15 16 20 27 18 17 18 19 20
25 27 29 30 30 30 11 9 9 9 13 18 22 21 21 6 11 13 13 12 14 16 15 16 16 18 18 17 16 14 14 19 16 19 14 29 14 16 22 24 14 17 17 19 19
24 26 28 32 32 14 11 6 9 13 9 16 19 17 17 13 13 14 17 16 14 16 17 17 18 19 15 19 8 14 15 20 22 13 16 14 13 12 16 15 19 16 17 19 21
24 25 26 32 6 13 8 9 11 10 7 10 9 7 12 11 18 18 16 14 17 19 17 17 19 17 12 15 14 15 17 20 22 15 12 14 13 14 15 16 15 13 16 14 19
24 24 25 10 12 8 11 12 12 7 7 7 12 8 8 17 6 17 15 13 20 17 12 16 19 12 17 15 17 15 21 18 18 20 17 16 11 11 12 15 17 16 16 13 16
25 23 23 4 8 14 13 14 8 7 9 7 7 8 11 14 19 11 14 13 15 17 18 17 18 15 14 16 15 17 19 20 18 13 15 19 16 15 15 15 18 17 13 15 15
28 29 13 9 9 15 11 9 7 8 2 3 2 6 11 13 15 10 13 15 14 14 16 19 20 17 18 13 15 19 12 10 14 13 13 16 19 14 16 15 15 15 10 11 13
31 32 8 9 10 11 9 8 9 13 12 5 2 10 11 11 15 15 14 14 17 17 17 15 15 23 18 19 18 19 11 11 15 13 14 16 20 18 21 20 19 13 4 7 8
33 8 8 10 8 4 7 10 8 13 11 13 12 12 12 15 15 13 16 17 17 19 18 15 22 18 9 15 16 18 16 15 16 17 16 16 20 18 23 9 6 3 3 3 4
10 10 11 6 1 5 7 13 20 22 13 9 14 17 18 15 15 15 15 14 16 17 16 13 16 18 18 7 16 18 15 15 12 17 18 16 19 12 6 14 7 3 5 5 6
6 7 6 3 5 6 9 14 17 16 8 4 13 16 16 17 19 18 8 12 17 15 12 13 11 14 18 15 12 12 16 15 13 12 13 13 12 6 8 5 5 9 9 10 8
7 7 8 3 7 7 12 18 7 11 10 12 10 15 16 16 19 19 18 15 15 10 9 12 4 10 19 20 18 16 16 14 10 13 13 14 14 9 0 9 8 9 8 8 5
7 10 2 4 7 8 13 16 13 12 11 15 15 13 12 15 16 16 18 19 22 6 6 9 7 10 15 16 17 19 18 16 13 8 15 14 12 10 9 11 8 6 9 10 10
7 5 6 6 9 10 13 13 14 9 14 8 14 16 17 17 16 16 18 20 18 15 10 2 7 12 14 16 14 14 17 19 17 13 12 15 17 17 18 13 15 10 9 11 10
6 1 5 6 4 9 9 12 13 15 14 10 10 14 13 16 18 19 19 17 17 14 8 6 13 17 21 23 25 26 26 24 17 19 20 18 22 19 19 14 13 8 6 10 13
7 6 8 11 12 12 10 12 15 14 15 12 13 14 17 10 13 15 19 16 10 17 17 12 16 18 25 23 24 28 31 29 26 25 21 19 20 15 14 15 18 14 12 12 11
8 7 5 7 9 9 9 10 12 10 6 10 11 11 13 12 18 15 15 16 18 19 17 14 11 13 18 18 21 32 25 28 27 26 24 21 18 17 18 15 15 16 12 14 11
Wind_Direction
351 348 344 341 341 337 334 332 331 329 320 308 302 298 294 299 292 236 248 257 187 163 194 255 213 238 244 259 259 263 276 284 1 99 125 216 114 96 108 127 106 86 134 140 146
348 346 344 341 339 336 332 331 330 328 320 306 295 295 293 309 275 259 224 139 134 160 228 238 229 229 239 256 240 242 260 294 247 119 79 251 119 125 132 114 110 112 119 137 150
348 346 345 341 337 334 330 329 328 328 321 308 291 288 289 291 274 262 146 142 143 183 250 285 268 240 246 248 248 244 251 284 328 19 139 102 122 145 132 138 130 134 141 153 159
347 347 344 339 335 332 329 329 327 325 320 307 286 280 281 250 329 100 151 145 146 228 243 262 255 259 244 249 248 248 260 271 300 27 330 300 124 161 136 155 136 142 151 158 167
344 344 341 336 332 330 328 326 322 321 318 305 274 259 252 238 244 140 144 141 180 214 240 239 231 239 244 253 246 250 258 280 274 298 279 172 134 209 145 129 134 145 160 166 172
341 339 337 333 329 329 326 323 318 317 316 308 257 217 252 261 115 147 166 169 211 214 236 246 251 276 300 284 266 237 239 270 259 238 237 193 145 193 166 132 139 154 168 172 178
339 336 334 332 326 326 324 319 313 311 308 298 232 247 264 257 91 157 178 193 209 218 240 243 287 310 251 280 283 271 282 250 253 230 157 234 192 175 205 154 149 160 175 178 183
338 334 332 331 324 323 322 316 309 302 292 275 230 252 268 261 328 188 185 201 210 227 268 323 275 267 280 282 292 253 249 249 218 226 194 202 317 33 282 162 163 166 180 183 186
336 334 330 330 325 323 322 312 298 279 253 240 235 230 261 132 226 233 203 209 214 224 233 273 262 258 240 237 254 234 244 232 241 202 178 191 196 180 234 180 181 171 181 190 186
337 333 328 327 323 324 324 296 223 275 219 220 260 270 255 234 197 219 202 228 204 218 229 225 240 244 236 245 239 226 216 251 245 178 203 190 226 167 191 206 192 187 188 186 189
336 332 327 326 323 322 335 301 245 192 234 260 277 244 299 192 93 216 191 213 211 219 229 220 237 235 234 230 253 267 302 243 262 135 75 304 216 170 154 230 195 205 187 189 190
335 331 327 324 319 314 282 319 32 310 295 271 259 253 259 241 216 223 198 206 213 221 217 243 223 249 249 252 245 287 291 279 279 164 165 213 241 181 186 214 208 208 200 187 188
333 329 326 322 316 293 314 15 311 321 273 290 222 225 229 230 237 224 198 208 223 228 237 233 245 219 241 261 240 257 270 274 275 184 190 260 224 244 271 256 194 211 231 195 189
331 327 326 328 295 333 300 351 335 348 278 222 186 219 201 203 236 249 188 217 230 239 226 253 247 272 274 251 263 252 246 258 277 274 218 228 255 255 244 265 276 266 212 207 197
328 326 323 325 312 297 352 324 335 280 293 176 131 115 185 194 89 203 235 201 236 235 242 256 244 256 265 252 269 261 275 259 250 273 285 248 228 249 231 230 246 236 243 233 216
324 324 330 297 212 260 310 319 288 236 248 134 133 198 197 207 243 174 208 207 235 249 267 255 275 266 245 262 242 270 266 269 277 262 253 260 267 264 257 230 235 255 230 226 219
321 313 307 302 270 334 318 288 248 245 72 205 216 189 198 197 225 205 191 213 228 233 244 254 246 245 264 262 256 244 251 254 246 247 257 255 248 250 260 265 258 256 250 231 222
322 310 246 232 289 289 296 261 249 279 307 108 321 285 248 268 204 215 215 227 221 245 273 273 243 219 215 220 254 230 225 247 255 249 260 254 251 250 239 243 241 254 356 335 342
314 297 251 232 221 292 268 238 251 257 349 337 332 286 261 250 252 266 220 235 250 212 229 265 277 288 254 198 216 257 222 237 256 272 278 286 285 251 226 202 209 187 280 281 281
316 291 248 102 51 241 241 246 285 300 322 311 294 296 300 298 263 218 252 269 242 258 281 235 263 277 290 237 227 221 256 240 222 242 260 274 282 287 244 200 183 203 231 215 224
267 271 108 202 190 234 243 254 258 273 327 315 292 293 294 298 297 307 288 257 264 258 245 257 251 260 281 271 246 248 240 250 278 273 256 247 264 315 32 113 206 203 211 209 199
292 268 125 218 249 231 246 253 262 297 306 292 271 279 282 290 300 300 301 283 354 330 283 276 282 250 258 268 274 230 265 249 234 261 271 282 282 310 37 311 176 208 222 197 200
280 295 187 235 252 249 270 261 262 288 281 286 290 272 276 276 281 274 278 284 288 302 9 349 293 259 253 266 270 269 238 234 245 247 248 267 274 276 338 307 264 248 266 194 184
280 288 194 202 264 288 298 299 303 300 280 282 294 292 294 286 280 273 271 279 286 281 107 33 266 275 265 255 275 269 259 238 240 248 258 255 279 290 293 278 272 200 234 260 225
241 281 18 299 46 341 322 312 307 296 301 293 281 292 279 279 276 276 278 285 284 276 261 247 264 272 270 273 283 285 280 272 254 250 239 247 248 248 254 267 277 219 241 241 274
297 344 359 300 297 288 287 278 282 298 305 304 306 317 312 322 351 340 341 331 314 334 335 327 264 245 262 268 271 271 269 270 271 272 272 253 255 258 254 274 281 278 212 200 234
14 294 260 291 286 270 274 286 295 323 319 291 292 311 303 314 338 323 308 294 287 291 300 302 311 307 279 281 271 257 258 265 271 271 269 264 270 266 270 251 245 257 261 260 220